Change the Weather History Date:

Wednesday, March 16, 2011

  Actual Average Record
Temperature  
Mean Temperature 51 °F 52 °F  
Max Temperature 60 °F 64 °F 83 °F (1945)
Min Temperature 42 °F 41 °F 18 °F (1970)
Degree Days  
Heating Degree Days 14 13  
Month to date heating degree days 213 240  
Since 1 July heating degree days 2918 2862  
Cooling Degree Days 0 0  
Month to date cooling degree days 0 0  
Year to date cooling degree days 0 0  
Growing Degree Days 2 (Base 50)    
Moisture  
Dew Point 39 °F    
Average Humidity 68    
Maximum Humidity 89    
Minimum Humidity 47    
Precipitation  
Precipitation 0.00 in 0.16 in 4.68 in (1973)
Month to date precipitation 7.53 2.57  
Year to date precipitation 14.04 12.32  
Snow  
Snow 0.00 in 0.10 in - ()
Month to date snowfall 0.0 0.8  
Since 1 July snowfall 12.6 3.4  
Snow Depth 0.00 in    
Sea Level Pressure  
Sea Level Pressure 30.25 in    
Wind  
Wind Speed 3 mph (NNW)    
Max Wind Speed 12 mph    
Max Gust Speed 14 mph    
Visibility 10 miles    
Events      
T = Trace of Precipitation, MM = Missing Value Source: NWS Daily Summary

Daily Weather History Graph

Daily Weather History Graph

Search for Another Location

Airport or City:

Trip Planner

Search our weather history database for the weather conditions in past years. The results will help you decide how hot, cold, wet, or windy it might be!

Date:

Astronomy

Mar. 16, 2011 Rise Set
Actual Time 7:50 AM EDT 7:49 PM EDT
Civil Twilight 7:25 AM EDT 8:14 PM EDT
Nautical Twilight 6:55 AM EDT 8:43 PM EDT
Astronomical Twilight 6:26 AM EDT 9:13 PM EDT
Moon 4:34 PM EDT (3/16) 5:28 AM EDT (3/16)
Length of Visible Light 12h 49m
Length of Day
11h 58m
Waxing Gibbous, 86% of the Moon is Illuminated
Mar 16
Waxing Gibbous
Mar 19
Full
Mar 26
Last Quarter
Apr 3
New
Apr 11
First Quarter

Hourly Weather History & Observations

Time (EDT) Temp. Windchill Dew Point Humidity Pressure Visibility Wind Dir Wind Speed Gust Speed Precip Events Conditions
12:53 AM 46.0 °F - 39.9 °F 79% 30.19 in 10.0 mi Calm Calm - N/A   Mostly Cloudy
1:53 AM 46.0 °F - 41.0 °F 83% 30.20 in 10.0 mi Calm Calm - N/A   Overcast
2:53 AM 46.0 °F - 42.1 °F 86% 30.19 in 10.0 mi Calm Calm - N/A   Overcast
3:53 AM 46.9 °F - 41.0 °F 80% 30.18 in 10.0 mi Calm Calm - N/A   Overcast
4:01 AM 46.4 °F - 41.0 °F 81% 30.18 in 10.0 mi Calm Calm - N/A   Overcast
4:53 AM 46.9 °F - 41.0 °F 80% 30.17 in 10.0 mi Calm Calm - N/A   Overcast
5:53 AM 46.9 °F - 41.0 °F 80% 30.19 in 10.0 mi NNW 4.6 mph - N/A   Overcast
6:47 AM 46.4 °F 41.9 °F 37.4 °F 71% 30.21 in 10.0 mi NW 9.2 mph - N/A   Overcast
6:53 AM 46.9 °F - 37.9 °F 71% 30.22 in 10.0 mi NNW 9.2 mph - N/A   Overcast
7:26 AM 46.4 °F 42.4 °F 37.4 °F 71% 30.23 in 10.0 mi WNW 8.1 mph - N/A   Overcast
7:53 AM 46.9 °F - 37.0 °F 68% 30.23 in 10.0 mi WNW 5.8 mph - N/A   Overcast
8:53 AM 46.9 °F - 37.9 °F 71% 30.26 in 10.0 mi NW 9.2 mph - N/A   Overcast
9:53 AM 46.9 °F - 37.9 °F 71% 30.29 in 10.0 mi NW 5.8 mph - N/A   Overcast
10:53 AM 48.0 °F - 37.9 °F 68% 30.30 in 10.0 mi North 5.8 mph - N/A   Overcast
11:31 AM 48.2 °F - 37.4 °F 66% 30.30 in 10.0 mi NNE 3.5 mph - N/A   Overcast
11:53 AM 48.9 °F - 37.0 °F 64% 30.32 in 10.0 mi North 5.8 mph - N/A   Overcast
12:53 PM 50.0 °F - 37.9 °F 63% 30.31 in 10.0 mi North 4.6 mph - N/A   Overcast
1:53 PM 53.1 °F - 39.0 °F 59% 30.30 in 10.0 mi North 6.9 mph - N/A   Mostly Cloudy
2:53 PM 55.9 °F - 39.0 °F 53% 30.27 in 10.0 mi North 8.1 mph - N/A   Scattered Clouds
3:53 PM 57.0 °F - 39.0 °F 51% 30.25 in 10.0 mi NE 6.9 mph - N/A   Scattered Clouds
4:53 PM 59.0 °F - 39.0 °F 48% 30.25 in 10.0 mi North 3.5 mph - N/A   Scattered Clouds
5:53 PM 59.0 °F - 39.0 °F 48% 30.25 in 10.0 mi Calm Calm - N/A   Scattered Clouds
6:53 PM 59.0 °F - 39.0 °F 48% 30.25 in 10.0 mi Calm Calm - N/A   Scattered Clouds
7:53 PM 55.0 °F - 39.9 °F 57% 30.27 in 10.0 mi NE 4.6 mph - N/A   Mostly Cloudy
8:53 PM 54.0 °F - 39.9 °F 59% 30.27 in 10.0 mi Calm Calm - N/A   Scattered Clouds
9:53 PM 46.9 °F - 42.1 °F 83% 30.29 in 10.0 mi Calm Calm - N/A   Partly Cloudy
10:53 PM 46.0 °F - 42.1 °F 86% 30.30 in 10.0 mi Calm Calm - N/A   Clear
11:53 PM 44.1 °F - 41.0 °F 89% 30.30 in 10.0 mi Calm Calm - N/A   Clear